Regional Weather Roundup
Issued by NWS

Home | Current Version | Previous Version | Text Only | Print | Product List | Glossary On
Versions: 1 2 3 4 5 6 7 8 9 10 11 12 13 14 15 16 17 18 19 20 21 22 23 24 25 26 27 28 29 30 31 32 33 34 35 36 37 38 39 40 41 42 43 44 45 46 47 48 49 50
000
ASUS44 KBMX 011610
RWRAL

ALABAMA REGIONAL WEATHER ROUNDUP
NATIONAL WEATHER SERVICE BIRMINGHAM AL
1100 AM CDT FRI AUG 01 2014

NOTE: "FAIR" INDICATES FEW OR NO CLOUDS BELOW 12,000 FEET
WITH NO SIGNIFICANT WEATHER AND/OR OBSTRUCTIONS TO VISIBILITY.

THE REMARK "TC" DENOTES TEMPERATURE IN DEGREES CELSIUS.

ALZ001>011-014-016>018-020-011700-
NORTH ALABAMA

CITY           SKY/WX    TMP DP  RH WIND       PRES   REMARKS
MUSCLE SHOALS  MOSUNNY   79  67  66 E6        30.08F
HUNTSVILLE     PTSUNNY   78  66  66 E3        30.09S
DECATUR        MOSUNNY   79  66  65 SE3       30.09S
HALEYVILLE     PTSUNNY   79  67  66 CALM      30.10F
GADSDEN        CLOUDY    75  66  73 E7        30.08F
$$

ALZ012-013-022-023-030>036-040>044-011700-
WEST CENTRAL ALABAMA

CITY           SKY/WX    TMP DP  RH WIND       PRES   REMARKS
TUSCALOOSA     PTSUNNY   81  68  65 CALM      30.04F
$$

ALZ015-024>027-033>036-040>044-011700-
CENTRAL ALABAMA

CITY           SKY/WX    TMP DP  RH WIND       PRES   REMARKS
BIRMINGHAM     CLOUDY    78  67  68 NE6       30.08F
MONTGOMERY     PTSUNNY   83  70  64 VRB3      30.04S
SHELBY CO ARPT CLOUDY    78  69  73 CALM      30.06F
MAXWELL AFB    CLOUDY    79  71  75 N6        30.04S
GREENVILLE     FAIR      86  69  56 N6        30.02F HX  90
$$

ALZ019-021-028-029-037-038-045>048-011700-
EAST CENTRAL ALABAMA

CITY           SKY/WX    TMP DP  RH WIND       PRES   REMARKS
ANNISTON       CLOUDY    73  67  81 E6        30.08F
ALEXANDER CITY CLOUDY    76  68  77 E5        30.08S
AUBURN         CLOUDY    72  66  83 NE8       30.10S
$$

ALZ051>064-011700-
SOUTHWEST ALABAMA

CITY           SKY/WX    TMP DP  RH WIND       PRES   REMARKS
MOBILE         CLOUDY    80  69  69 CALM      30.03F
BROOKLEY FIELD CLOUDY    79  70  74 NE3       30.04S
EVERGREEN      PTSUNNY   86  68  54 CALM      30.02F
$$

ALZ049-050-065>069-011700-
SOUTHEAST ALABAMA

CITY           SKY/WX    TMP DP  RH WIND       PRES   REMARKS
DOTHAN         MOSUNNY   85  68  56 CALM      30.05F
OZARK          MOSUNNY   85  69  58 VRB3      30.01F
TROY           MOSUNNY   84  71  65 VRB3      30.03F
EUFAULA        FAIR      81  70  69 VRB5      30.02F
$$


USA.gov is the U.S. government's official web portal to all federal, state and local government web resources and services.